,,,PA_Meas_PMT16A,,PR_Meas_QMR101_102,,RH_Meas_QMH101,,SR_Meas_QMS101,,TA_Meas_QMH101,,GenWind,,GenWind,
date,time,status,PA,status,PR,status,RH,status,SR,status,TA,status,DirAvg,status,SpdAvg,
2010-06-14, 00:00:04,VALID,1001.91,VALID,0,VALID,88.0077,VALID,0,VALID,23.9957,VALID,10,VALID,1.04297,
2010-06-14, 00:01:04,VALID,1001.88,VALID,0,VALID,87.9314,VALID,0,VALID,23.9744,VALID,21,VALID,1.03398,
2010-06-14, 00:02:04,VALID,1001.85,VALID,0,VALID,87.8474,VALID,0,VALID,23.9744,VALID,2,VALID,0.986328,
2010-06-14, 00:03:04,VALID,1001.79,VALID,0,VALID,87.7025,VALID,0,VALID,23.9744,VALID,351,VALID,0.782812,
2010-06-14, 00:04:04,VALID,1001.74,VALID,0,VALID,87.3592,VALID,0,VALID,23.9939,VALID,333,VALID,0.849609,
2010-06-14, 00:05:04,VALID,1001.66,VALID,0,VALID,87.0387,VALID,0,VALID,24.0329,VALID,324,VALID,1.00703,
2010-06-14, 00:06:04,VALID,1001.63,VALID,0,VALID,87.2676,VALID,0,VALID,24.0915,VALID,298,VALID,0.966406,
2010-06-14, 00:07:04,VALID,1001.6,VALID,0,VALID,87.0387,VALID,0,VALID,24.111,VALID,289,VALID,0.285156,
2010-06-14, 00:08:04,VALID,1001.59,VALID,0,VALID,87.0921,VALID,0,VALID,24.1287,VALID,250,VALID,0.382422,
2010-06-14, 00:09:04,VALID,1001.58,VALID,0,VALID,87.0921,VALID,0,VALID,24.1482,VALID,220,VALID,0.422656,
2010-06-14, 00:10:04,VALID,1001.61,VALID,0,VALID,87.176,VALID,0,VALID,24.1696,VALID,220,VALID,0.386328,
2010-06-14, 00:11:04,VALID,1001.57,VALID,0,VALID,87.2829,VALID,0,VALID,24.1891,VALID,220,VALID,0.0335938,
2010-06-14, 00:12:04,VALID,1001.6,VALID,0,VALID,86.9014,VALID,0,VALID,24.1696,VALID,77,VALID,0.637109,
2010-06-14, 00:13:04,VALID,1001.64,VALID,0,VALID,87.0234,VALID,0,VALID,24.1287,VALID,90,VALID,0.876953,
2010-06-14, 00:14:04,VALID,1001.62,VALID,0,VALID,86.848,VALID,0,VALID,24.15,VALID,95,VALID,1.02148,
2010-06-14, 00:15:04,VALID,1001.62,VALID,0,VALID,87.1837,VALID,0,VALID,24.15,VALID,75,VALID,0.751953,
2010-06-14, 00:16:04,VALID,1001.6,VALID,0,VALID,87.0921,VALID,0,VALID,24.0897,VALID,45,VALID,0.824219,
2010-06-14, 00:17:04,VALID,1001.63,VALID,0,VALID,87.4812,VALID,0,VALID,24.072,VALID,33,VALID,0.357812,
2010-06-14, 00:18:04,VALID,1001.55,VALID,0,VALID,87.5957,VALID,0,VALID,24.0525,VALID,33,VALID,0.210547,
2010-06-14, 00:19:04,VALID,1001.54,VALID,0,VALID,87.7177,VALID,0,VALID,24.0329,VALID,33,VALID,0,
2010-06-14, 00:20:04,VALID,1001.55,VALID,0,VALID,87.9924,VALID,0,VALID,23.9939,VALID,33,VALID,0.402734,
2010-06-14, 00:21:04,VALID,1001.55,VALID,0,VALID,87.3592,VALID,0,VALID,23.9744,VALID,42,VALID,0.842969,
2010-06-14, 00:22:04,VALID,1001.58,VALID,0,VALID,87.7788,VALID,0,VALID,23.9726,VALID,55,VALID,0.958594,
2010-06-14, 00:23:04,VALID,1001.54,VALID,0,VALID,87.6491,VALID,0,VALID,24.0134,VALID,59,VALID,0.978125,
2010-06-14, 00:24:04,VALID,1001.52,VALID,0,VALID,87.5728,VALID,0,VALID,24.0134,VALID,59,VALID,0.816406,
2010-06-14, 00:25:04,VALID,1001.51,VALID,0,VALID,87.6643,VALID,0,VALID,24.0329,VALID,59,VALID,1.01797,
2010-06-14, 00:26:04,VALID,1001.48,VALID,0,VALID,87.8627,VALID,0,VALID,24.0329,VALID,58,VALID,0.717578,
2010-06-14, 00:27:04,VALID,1001.46,VALID,0,VALID,88.0229,VALID,0,VALID,24.0134,VALID,58,VALID,0.560938,
2010-06-14, 00:28:04,VALID,1001.47,VALID,0,VALID,88.2442,VALID,0,VALID,23.9726,VALID,59,VALID,0.312891,
2010-06-14, 00:29:04,VALID,1001.42,VALID,0,VALID,88.4273,VALID,0,VALID,23.9336,VALID,59,VALID,0.0328125,
2010-06-14, 00:30:04,VALID,1001.42,VALID,0,VALID,88.5417,VALID,0,VALID,23.9159,VALID,59,VALID,0.2375,
2010-06-14, 00:31:04,VALID,1001.39,VALID,0,VALID,88.557,VALID,0,VALID,23.914,VALID,59,VALID,0.143359,
2010-06-14, 00:32:04,VALID,1001.39,VALID,0,VALID,88.7401,VALID,0,VALID,23.9159,VALID,59,VALID,0.169141,
2010-06-14, 00:33:04,VALID,1001.35,VALID,0,VALID,88.7401,VALID,0,VALID,23.875,VALID,59,VALID,0.137891,
2010-06-14, 00:34:04,VALID,1001.34,VALID,0,VALID,88.7554,VALID,0,VALID,23.8555,VALID,59,VALID,0.0078125,
2010-06-14, 00:35:04,VALID,1001.35,VALID,0,VALID,88.7706,VALID,0,VALID,23.8573,VALID,59,VALID,0.520703,
2010-06-14, 00:36:04,VALID,1001.33,VALID,0,VALID,88.4731,VALID,0,VALID,23.8573,VALID,59,VALID,0.632031,
2010-06-14, 00:37:04,VALID,1001.32,VALID,0,VALID,88.1221,VALID,0,VALID,23.8573,VALID,59,VALID,0.437109,
2010-06-14, 00:38:04,VALID,1001.3,VALID,0,VALID,88.0992,VALID,0,VALID,23.8963,VALID,59,VALID,0.414453,
2010-06-14, 00:39:04,VALID,1001.3,VALID,0,VALID,88.2671,VALID,0,VALID,23.8963,VALID,59,VALID,0.35,
2010-06-14, 00:40:04,VALID,1001.27,VALID,0,VALID,88.4883,VALID,0,VALID,23.8945,VALID,59,VALID,0.303906,
2010-06-14, 00:41:04,VALID,1001.27,VALID,0,VALID,88.5646,VALID,0,VALID,23.8963,VALID,59,VALID,0.191797,
2010-06-14, 00:42:04,VALID,1001.26,VALID,0,VALID,88.6028,VALID,0,VALID,23.8768,VALID,59,VALID,0.135156,
2010-06-14, 00:43:04,VALID,1001.25,VALID,0,VALID,88.6943,VALID,0,VALID,23.8573,VALID,59,VALID,0,
2010-06-14, 00:44:04,VALID,1001.22,VALID,0,VALID,88.9461,VALID,0,VALID,23.8378,VALID,59,VALID,0.0015625,
2010-06-14, 00:45:04,VALID,1001.22,VALID,0,VALID,89.4191,VALID,0,VALID,23.8573,VALID,122,VALID,0.714844,
2010-06-14, 00:46:04,VALID,1001.18,VALID,0,VALID,89.4268,VALID,0,VALID,23.8573,VALID,126,VALID,0.889844,
2010-06-14, 00:47:04,VALID,1001.19,VALID,0,VALID,89.2055,VALID,0,VALID,23.8768,VALID,126,VALID,0.604297,
2010-06-14, 00:48:04,VALID,1001.16,VALID,0,VALID,88.824,VALID,0,VALID,23.914,VALID,126,VALID,0.311328,
2010-06-14, 00:49:04,VALID,1001.19,VALID,0,VALID,88.5341,VALID,0,VALID,23.9744,VALID,126,VALID,0.2375,
2010-06-14, 00:50:04,VALID,1001.19,VALID,0,VALID,88.3205,VALID,0,VALID,24.0134,VALID,126,VALID,0.648438,
2010-06-14, 00:51:04,VALID,1001.19,VALID,0,VALID,88.0534,VALID,0,VALID,24.0525,VALID,126,VALID,1.2668,
2010-06-14, 00:52:04,VALID,1001.19,VALID,0,VALID,88.4426,VALID,0,VALID,24.072,VALID,127,VALID,0.964063,
2010-06-14, 00:53:04,VALID,1001.21,VALID,0,VALID,88.3357,VALID,0,VALID,24.072,VALID,127,VALID,0.311328,
2010-06-14, 00:54:04,VALID,1001.21,VALID,0,VALID,88.496,VALID,0,VALID,24.0525,VALID,81,VALID,0.841797,
2010-06-14, 00:55:04,VALID,1001.22,VALID,0,VALID,88.9537,VALID,0,VALID,24.0506,VALID,72,VALID,1.23008,
2010-06-14, 00:56:04,VALID,1001.21,VALID,0,VALID,89.4954,VALID,0,VALID,24.0525,VALID,51,VALID,1.1082,
2010-06-14, 00:57:04,VALID,1001.21,VALID,0,VALID,89.7243,VALID,0,VALID,24.0329,VALID,55,VALID,1.06641,
2010-06-14, 00:58:04,VALID,1001.24,VALID,0,VALID,89.8159,VALID,0,VALID,23.9939,VALID,88,VALID,1.09023,
2010-06-14, 00:59:04,VALID,1001.18,VALID,0,VALID,89.5641,VALID,0,VALID,23.9531,VALID,57,VALID,1.20938,
2010-06-14, 01:00:04,VALID,1001.15,VALID,0,VALID,89.3963,VALID,0,VALID,23.8945,VALID,9,VALID,1.15,
2010-06-14, 01:01:04,VALID,1001.14,VALID,0,VALID,89.4344,VALID,0,VALID,23.8555,VALID,360,VALID,0.8,
2010-06-14, 01:02:04,VALID,1001.19,VALID,0,VALID,89.442,VALID,0,VALID,23.836,VALID,360,VALID,0.200391,
2010-06-14, 01:03:04,VALID,1001.13,VALID,0,VALID,89.4497,VALID,0,VALID,23.8183,VALID,360,VALID,0.0367187,
2010-06-14, 01:04:04,VALID,1001.09,VALID,0,VALID,89.5183,VALID,0,VALID,23.7988,VALID,349,VALID,0.653125,
2010-06-14, 01:05:04,VALID,1001.09,VALID,0,VALID,89.4954,VALID,0,VALID,23.7988,VALID,339,VALID,1.13437,
2010-06-14, 01:06:04,VALID,1001.09,VALID,0,VALID,89.854,VALID,0,VALID,23.8183,VALID,339,VALID,0.953906,
2010-06-14, 01:07:04,VALID,1001.13,VALID,0,VALID,90.0066,VALID,0,VALID,23.8183,VALID,352,VALID,0.535937,
2010-06-14, 01:08:04,VALID,1001.16,VALID,0,VALID,90.0677,VALID,0,VALID,23.8183,VALID,52,VALID,0.944531,
2010-06-14, 01:09:04,VALID,1001.15,VALID,0,VALID,90.0982,VALID,0,VALID,23.7988,VALID,53,VALID,0.80625,
2010-06-14, 01:10:04,VALID,1001.13,VALID,0,VALID,90.1592,VALID,0,VALID,23.7793,VALID,47,VALID,0.741797,
2010-06-14, 01:11:04,VALID,1001.13,VALID,0,VALID,90.1668,VALID,0,VALID,23.7597,VALID,24,VALID,0.89375,
2010-06-14, 01:12:04,VALID,1001.12,VALID,0,VALID,90.0066,VALID,0,VALID,23.7597,VALID,20,VALID,0.969531,
2010-06-14, 01:13:04,VALID,1001.15,VALID,0,VALID,89.7701,VALID,0,VALID,23.7579,VALID,20,VALID,0.960938,
2010-06-14, 01:14:04,VALID,1001.17,VALID,0,VALID,89.7396,VALID,0,VALID,23.7793,VALID,24,VALID,1.08477,
2010-06-14, 01:15:04,VALID,1001.17,VALID,0,VALID,89.7549,VALID,0,VALID,23.7793,VALID,45,VALID,1.18008,
2010-06-14, 01:16:04,VALID,1001.18,VALID,0,VALID,89.6862,VALID,0,VALID,23.7597,VALID,46,VALID,1.33906,
2010-06-14, 01:17:04,VALID,1001.19,VALID,0,VALID,89.7167,VALID,0,VALID,23.7793,VALID,43,VALID,1.19375,
2010-06-14, 01:18:04,VALID,1001.17,VALID,0,VALID,89.5412,VALID,0,VALID,23.7793,VALID,34,VALID,1.30273,
2010-06-14, 01:19:04,VALID,1001.17,VALID,0,VALID,89.5031,VALID,0.112286,VALID,23.8165,VALID,30,VALID,1.21953,
2010-06-14, 01:20:04,VALID,1001.16,VALID,0,VALID,89.4954,VALID,0,VALID,23.8165,VALID,22,VALID,1.27734,
2010-06-14, 01:21:04,VALID,1001.12,VALID,0,VALID,89.5336,VALID,0,VALID,23.7952,VALID,21,VALID,1.30352,
2010-06-14, 01:22:04,VALID,1001.13,VALID,0,VALID,89.6557,VALID,0.112286,VALID,23.797,VALID,23,VALID,1.1168,
2010-06-14, 01:23:04,VALID,1001.09,VALID,0,VALID,89.7243,VALID,0,VALID,23.797,VALID,24,VALID,0.855859,
2010-06-14, 01:24:04,VALID,1001.05,VALID,0,VALID,89.8006,VALID,0.112286,VALID,23.797,VALID,24,VALID,0.744922,
2010-06-14, 01:25:04,VALID,1001.02,VALID,0,VALID,89.8159,VALID,0,VALID,23.7775,VALID,24,VALID,0.584766,
2010-06-14, 01:26:04,VALID,1001,VALID,0,VALID,89.8235,VALID,0,VALID,23.7775,VALID,24,VALID,0.532422,
2010-06-14, 01:27:04,VALID,1000.97,VALID,0,VALID,89.7625,VALID,0.112286,VALID,23.7775,VALID,24,VALID,0.376563,
2010-06-14, 01:28:04,VALID,1000.98,VALID,0,VALID,89.6786,VALID,0.112286,VALID,23.7579,VALID,24,VALID,0.402344,
2010-06-14, 01:29:04,VALID,1001,VALID,0,VALID,89.5565,VALID,0.112286,VALID,23.7775,VALID,24,VALID,0.196094,
2010-06-14, 01:30:04,VALID,1000.99,VALID,0,VALID,89.4039,VALID,0.112286,VALID,23.7775,VALID,24,VALID,0,
2010-06-14, 01:31:04,VALID,1000.98,VALID,0,VALID,89.8846,VALID,0,VALID,23.7775,VALID,24,VALID,0.271094,
2010-06-14, 01:32:04,VALID,1001.01,VALID,0,VALID,89.938,VALID,0,VALID,23.7579,VALID,24,VALID,0.433203,
2010-06-14, 01:33:04,VALID,1001.06,VALID,0,VALID,89.8235,VALID,0,VALID,23.7366,VALID,99,VALID,0.8375,
2010-06-14, 01:34:04,VALID,1001.06,VALID,0,VALID,90.3347,VALID,0,VALID,23.8183,VALID,107,VALID,1.52578,
2010-06-14, 01:35:04,VALID,1001.08,VALID,0,VALID,89.9761,VALID,0,VALID,23.7988,VALID,101,VALID,1.37539,
2010-06-14, 01:36:04,VALID,1001.1,VALID,0,VALID,90.266,VALID,0,VALID,23.8183,VALID,116,VALID,1.3293,
2010-06-14, 01:37:04,VALID,1001.07,VALID,0,VALID,90.411,VALID,0,VALID,23.7988,VALID,127,VALID,1.17852,
2010-06-14, 01:38:04,VALID,1001.07,VALID,0,VALID,90.4263,VALID,0,VALID,23.7988,VALID,128,VALID,0.892187,
2010-06-14, 01:39:04,VALID,1001.07,VALID,0,VALID,90.4949,VALID,0,VALID,23.7988,VALID,127,VALID,0.747266,
2010-06-14, 01:40:04,VALID,1001.06,VALID,0,VALID,90.5636,VALID,0,VALID,23.7793,VALID,127,VALID,0.673437,
2010-06-14, 01:41:04,VALID,1001.03,VALID,0,VALID,90.5788,VALID,0,VALID,23.7793,VALID,127,VALID,0.670313,
2010-06-14, 01:42:04,VALID,1000.95,VALID,0,VALID,90.6094,VALID,0,VALID,23.7597,VALID,127,VALID,0.403516,
2010-06-14, 01:43:04,VALID,1000.93,VALID,0,VALID,90.6475,VALID,0,VALID,23.7597,VALID,127,VALID,0.230078,
2010-06-14, 01:44:04,VALID,1000.89,VALID,0,VALID,90.7238,VALID,0,VALID,23.7597,VALID,127,VALID,0.216406,
2010-06-14, 01:45:04,VALID,1000.86,VALID,0,VALID,90.6933,VALID,0,VALID,23.7402,VALID,125,VALID,0.451562,
2010-06-14, 01:46:04,VALID,1000.85,VALID,0,VALID,90.7772,VALID,0,VALID,23.7402,VALID,350,VALID,0.589844,
2010-06-14, 01:47:04,VALID,1000.85,VALID,0,VALID,90.762,VALID,0,VALID,23.7402,VALID,350,VALID,0.516406,
2010-06-14, 01:48:04,VALID,1000.85,VALID,0,VALID,90.7925,VALID,0,VALID,23.7384,VALID,350,VALID,0.564453,
2010-06-14, 01:49:04,VALID,1000.87,VALID,0,VALID,90.7849,VALID,0,VALID,23.7402,VALID,340,VALID,0.617969,
2010-06-14, 01:50:04,VALID,1000.84,VALID,0,VALID,90.7467,VALID,0,VALID,23.7207,VALID,340,VALID,0.443359,
2010-06-14, 01:51:04,VALID,1000.86,VALID,0,VALID,90.7238,VALID,0,VALID,23.7402,VALID,340,VALID,0.389453,
2010-06-14, 01:52:04,VALID,1000.85,VALID,0,VALID,90.5407,VALID,0,VALID,23.7402,VALID,340,VALID,0.420312,
2010-06-14, 01:53:04,VALID,1000.89,VALID,0,VALID,90.2431,VALID,0,VALID,23.7402,VALID,340,VALID,0.34375,
2010-06-14, 01:54:04,VALID,1000.9,VALID,0,VALID,90.0295,VALID,0,VALID,23.7597,VALID,340,VALID,0.378516,
2010-06-14, 01:55:04,VALID,1000.92,VALID,0,VALID,89.8769,VALID,0,VALID,23.7775,VALID,340,VALID,0.236328,
2010-06-14, 01:56:04,VALID,1000.97,VALID,0,VALID,89.8617,VALID,0,VALID,23.8183,VALID,340,VALID,0,
2010-06-14, 01:57:04,VALID,1000.98,VALID,0,VALID,89.8693,VALID,0,VALID,23.8183,VALID,340,VALID,0.00117188,
2010-06-14, 01:58:04,VALID,1001.02,VALID,0,VALID,89.9151,VALID,0,VALID,23.8183,VALID,340,VALID,0.0402344,
2010-06-14, 01:59:04,VALID,1001.02,VALID,0,VALID,89.7854,VALID,0,VALID,23.797,VALID,340,VALID,0.317187,
2010-06-14, 02:00:04,VALID,1001.05,VALID,0,VALID,89.5107,VALID,0,VALID,23.797,VALID,340,VALID,0.379687,
2010-06-14, 02:01:04,VALID,1001.09,VALID,0,VALID,89.2971,VALID,0,VALID,23.8183,VALID,340,VALID,0.606641,
2010-06-14, 02:02:04,VALID,1001.11,VALID,0,VALID,89.2666,VALID,0,VALID,23.8768,VALID,356,VALID,0.836328,
2010-06-14, 02:03:04,VALID,1001.16,VALID,0,VALID,89.938,VALID,0,VALID,23.9159,VALID,145,VALID,1.51133,
2010-06-14, 02:04:04,VALID,1001.17,VALID,0,VALID,90.2431,VALID,0,VALID,23.9549,VALID,153,VALID,1.41211,
2010-06-14, 02:05:04,VALID,1001.18,VALID,0,VALID,90.1287,VALID,0,VALID,23.9531,VALID,170,VALID,1.6457,
2010-06-14, 02:06:04,VALID,1001.18,VALID,0,VALID,89.6633,VALID,0,VALID,24.0329,VALID,166,VALID,1.74375,
2010-06-14, 02:07:04,VALID,1001.19,VALID,0,VALID,89.6938,VALID,0,VALID,24.111,VALID,148,VALID,1.9418,
2010-06-14, 02:08:04,VALID,1001.21,VALID,0,VALID,89.7625,VALID,0,VALID,24.15,VALID,142,VALID,1.50586,
2010-06-14, 02:09:04,VALID,1001.18,VALID,0,VALID,89.5107,VALID,0,VALID,24.1696,VALID,151,VALID,0.937891,
2010-06-14, 02:10:04,VALID,1001.18,VALID,0,VALID,89.2513,VALID,0,VALID,24.15,VALID,154,VALID,0.6875,
2010-06-14, 02:11:04,VALID,1001.15,VALID,0,VALID,88.9766,VALID,0,VALID,24.1482,VALID,142,VALID,1.08984,
2010-06-14, 02:12:04,VALID,1001.19,VALID,0,VALID,89.2208,VALID,0,VALID,24.1696,VALID,125,VALID,0.849609,
2010-06-14, 02:13:04,VALID,1001.17,VALID,0,VALID,88.8469,VALID,0,VALID,24.1696,VALID,122,VALID,1.37656,
2010-06-14, 02:14:04,VALID,1001.15,VALID,0,VALID,88.824,VALID,0,VALID,24.1891,VALID,120,VALID,1.10352,
2010-06-14, 02:15:04,VALID,1001.12,VALID,0,VALID,88.8698,VALID,0,VALID,24.2086,VALID,107,VALID,0.900391,
2010-06-14, 02:16:04,VALID,1001.13,VALID,0,VALID,88.8088,VALID,0,VALID,24.1872,VALID,97,VALID,1.12148,
2010-06-14, 02:17:04,VALID,1001.14,VALID,0,VALID,89.1368,VALID,0,VALID,24.2086,VALID,93,VALID,0.851953,
2010-06-14, 02:18:04,VALID,1001.15,VALID,0,VALID,89.4268,VALID,0,VALID,24.2086,VALID,69,VALID,0.981641,
2010-06-14, 02:19:04,VALID,1001.17,VALID,0,VALID,89.6557,VALID,0,VALID,24.2086,VALID,81,VALID,0.897656,
2010-06-14, 02:20:04,VALID,1001.15,VALID,0,VALID,89.8159,VALID,0,VALID,24.2086,VALID,91,VALID,1.09883,
2010-06-14, 02:21:04,VALID,1001.17,VALID,0,VALID,89.7167,VALID,0,VALID,24.2086,VALID,76,VALID,1.04297,
2010-06-14, 02:22:04,VALID,1001.18,VALID,0,VALID,89.5794,VALID,0,VALID,24.1891,VALID,53,VALID,0.980078,
2010-06-14, 02:23:04,VALID,1001.16,VALID,0,VALID,89.7472,VALID,0,VALID,24.2086,VALID,51,VALID,0.74375,
2010-06-14, 02:24:04,VALID,1001.18,VALID,0,VALID,89.7243,VALID,0,VALID,24.2086,VALID,50,VALID,0.740625,
2010-06-14, 02:25:04,VALID,1001.18,VALID,0,VALID,90.06,VALID,0,VALID,24.1891,VALID,46,VALID,0.926172,
2010-06-14, 02:26:04,VALID,1001.19,VALID,0,VALID,90.205,VALID,0,VALID,24.1696,VALID,46,VALID,1.03555,
2010-06-14, 02:27:04,VALID,1001.18,VALID,0,VALID,90.5102,VALID,0,VALID,24.1696,VALID,49,VALID,0.718359,
2010-06-14, 02:28:04,VALID,1001.19,VALID,0,VALID,90.4491,VALID,0,VALID,24.1305,VALID,62,VALID,0.733203,
2010-06-14, 02:29:04,VALID,1001.2,VALID,0,VALID,90.5102,VALID,0,VALID,24.1305,VALID,115,VALID,0.641016,
2010-06-14, 02:30:04,VALID,1001.18,VALID,0,VALID,90.4491,VALID,0,VALID,24.0915,VALID,145,VALID,1.1043,
2010-06-14, 02:31:04,VALID,1001.22,VALID,0,VALID,90.5941,VALID,0,VALID,24.111,VALID,169,VALID,1.54297,
2010-06-14, 02:32:04,VALID,1001.22,VALID,0,VALID,90.9222,VALID,0,VALID,24.1891,VALID,171,VALID,2.37617,
2010-06-14, 02:33:04,VALID,1001.26,VALID,0,VALID,90.678,VALID,0,VALID,24.2281,VALID,166,VALID,2.43711,
2010-06-14, 02:34:04,VALID,1001.24,VALID,0,VALID,90.144,VALID,0,VALID,24.2476,VALID,163,VALID,1.44609,
2010-06-14, 02:35:04,VALID,1001.24,VALID,0,VALID,90.0066,VALID,0.112286,VALID,24.2458,VALID,144,VALID,1.48945,
2010-06-14, 02:36:04,VALID,1001.2,VALID,0,VALID,89.9532,VALID,0,VALID,24.2458,VALID,133,VALID,1.48828,
2010-06-14, 02:37:04,VALID,1001.19,VALID,0,VALID,89.8617,VALID,0,VALID,24.2067,VALID,119,VALID,1.5543,
2010-06-14, 02:38:04,VALID,1001.19,VALID,0,VALID,89.8083,VALID,0.112286,VALID,24.1872,VALID,119,VALID,1.48477,
2010-06-14, 02:39:04,VALID,1001.17,VALID,0,VALID,89.4344,VALID,0,VALID,24.1677,VALID,149,VALID,1.36523,
2010-06-14, 02:40:04,VALID,1001.15,VALID,0,VALID,89.8769,VALID,0.112286,VALID,24.1872,VALID,160,VALID,1.59766,
2010-06-14, 02:41:04,VALID,1001.14,VALID,0,VALID,89.8159,VALID,0,VALID,24.1677,VALID,156,VALID,1.37656,
2010-06-14, 02:42:04,VALID,1001.08,VALID,0,VALID,89.7854,VALID,0.112286,VALID,24.1677,VALID,184,VALID,1.05547,
2010-06-14, 02:43:04,VALID,1001.07,VALID,0,VALID,90.1974,VALID,0.112286,VALID,24.1677,VALID,220,VALID,0.970703,
2010-06-14, 02:44:04,VALID,1001.04,VALID,0.5,VALID,90.3194,VALID,0,VALID,24.2067,VALID,243,VALID,0.810156,
2010-06-14, 02:45:04,VALID,1001.05,VALID,0,VALID,89.3963,VALID,0,VALID,24.1677,VALID,274,VALID,1.15117,
2010-06-14, 02:46:04,VALID,1001,VALID,0,VALID,89.4039,VALID,0.112286,VALID,24.2067,VALID,277,VALID,0.686328,
2010-06-14, 02:47:04,VALID,1000.99,VALID,0,VALID,88.29,VALID,0,VALID,24.2263,VALID,244,VALID,1.09531,
2010-06-14, 02:48:04,VALID,1000.96,VALID,0,VALID,88.1908,VALID,0,VALID,24.2848,VALID,236,VALID,0.580078,
2010-06-14, 02:49:04,VALID,1000.95,VALID,0,VALID,88.0382,VALID,0,VALID,24.2671,VALID,181,VALID,0.594531,
2010-06-14, 02:50:04,VALID,1000.93,VALID,0,VALID,87.8398,VALID,0,VALID,24.269,VALID,182,VALID,0.0734375,
2010-06-14, 02:51:04,VALID,1000.91,VALID,0,VALID,88.084,VALID,0,VALID,24.2281,VALID,182,VALID,0,
2010-06-14, 02:52:04,VALID,1000.86,VALID,0,VALID,88.4426,VALID,0,VALID,24.2086,VALID,182,VALID,0.0015625,
2010-06-14, 02:53:04,VALID,1000.87,VALID,0,VALID,88.7783,VALID,0,VALID,24.1891,VALID,182,VALID,0,
2010-06-14, 02:54:04,VALID,1000.84,VALID,0,VALID,88.8011,VALID,0,VALID,24.1696,VALID,182,VALID,0,
2010-06-14, 02:55:04,VALID,1000.79,VALID,0,VALID,89.0071,VALID,0,VALID,24.1696,VALID,258,VALID,0.635938,
2010-06-14, 02:56:04,VALID,1000.78,VALID,0,VALID,89.732,VALID,0,VALID,24.15,VALID,299,VALID,0.942969,
2010-06-14, 02:57:04,VALID,1000.73,VALID,0,VALID,89.9074,VALID,0,VALID,24.0915,VALID,332,VALID,1.03672,
2010-06-14, 02:58:04,VALID,1000.71,VALID,0,VALID,90.2889,VALID,0,VALID,24.072,VALID,335,VALID,1.22539,
2010-06-14, 02:59:04,VALID,1000.67,VALID,0,VALID,90.5865,VALID,0,VALID,24.0525,VALID,335,VALID,1.33477,
2010-06-14, 03:00:04,VALID,1000.67,VALID,0,VALID,90.9603,VALID,0,VALID,24.0525,VALID,322,VALID,0.682813,
2010-06-14, 03:01:04,VALID,1000.66,VALID,0,VALID,91.0366,VALID,0,VALID,24.0134,VALID,289,VALID,1.13984,
2010-06-14, 03:02:04,VALID,1000.63,VALID,0,VALID,91.0214,VALID,0,VALID,23.9939,VALID,283,VALID,1.18477,
2010-06-14, 03:03:04,VALID,1000.63,VALID,0,VALID,90.8154,VALID,0,VALID,23.9744,VALID,273,VALID,0.971484,
2010-06-14, 03:04:04,VALID,1000.65,VALID,0,VALID,90.8764,VALID,0,VALID,23.9939,VALID,270,VALID,0.648047,
2010-06-14, 03:05:04,VALID,1000.64,VALID,0,VALID,90.7467,VALID,0,VALID,23.9744,VALID,276,VALID,1.02773,
2010-06-14, 03:06:04,VALID,1000.65,VALID,0,VALID,90.8459,VALID,0,VALID,23.9957,VALID,281,VALID,0.479297,
2010-06-14, 03:07:04,VALID,1000.68,VALID,0,VALID,90.9527,VALID,0,VALID,23.9957,VALID,280,VALID,0,
2010-06-14, 03:08:04,VALID,1000.68,VALID,0,VALID,91.0061,VALID,0,VALID,23.9744,VALID,280,VALID,0.0621094,
2010-06-14, 03:09:04,VALID,1000.71,VALID,0,VALID,90.9603,VALID,0,VALID,23.9354,VALID,281,VALID,0.0421875,
2010-06-14, 03:10:04,VALID,1000.69,VALID,0,VALID,90.9603,VALID,0,VALID,23.9354,VALID,280,VALID,0,
2010-06-14, 03:11:04,VALID,1000.68,VALID,0,VALID,90.9451,VALID,0,VALID,23.9159,VALID,281,VALID,0,
2010-06-14, 03:12:04,VALID,1000.65,VALID,0,VALID,91.0824,VALID,0,VALID,23.9159,VALID,281,VALID,0,
2010-06-14, 03:13:04,VALID,1000.69,VALID,0,VALID,91.296,VALID,0,VALID,23.8963,VALID,281,VALID,0,
2010-06-14, 03:14:04,VALID,1000.68,VALID,0,VALID,91.3876,VALID,0,VALID,23.8963,VALID,280,VALID,0.540625,
2010-06-14, 03:15:04,VALID,1000.66,VALID,0,VALID,91.3189,VALID,0,VALID,23.8963,VALID,118,VALID,0.789844,
2010-06-14, 03:16:04,VALID,1000.69,VALID,0,VALID,91.235,VALID,0,VALID,23.8768,VALID,106,VALID,0.854297,
2010-06-14, 03:17:04,VALID,1000.7,VALID,0,VALID,91.5097,VALID,0,VALID,23.8768,VALID,95,VALID,0.674609,
2010-06-14, 03:18:04,VALID,1000.67,VALID,0,VALID,91.6623,VALID,0,VALID,23.8963,VALID,101,VALID,1.39297,
2010-06-14, 03:19:04,VALID,1000.69,VALID,0,VALID,91.5936,VALID,0,VALID,23.8963,VALID,99,VALID,1.28047,
2010-06-14, 03:20:05,VALID,1000.68,VALID,0,VALID,91.6928,VALID,0,VALID,23.8555,VALID,88,VALID,0.871094,
2010-06-14, 03:21:05,VALID,1000.72,VALID,0,VALID,91.6165,VALID,0,VALID,23.8573,VALID,86,VALID,0.982422,
2010-06-14, 03:22:05,VALID,1000.73,VALID,0,VALID,91.7462,VALID,0,VALID,23.8768,VALID,86,VALID,0.628125,
2010-06-14, 03:23:05,VALID,1000.74,VALID,0,VALID,91.7996,VALID,0,VALID,23.8573,VALID,86,VALID,0.576953,
2010-06-14, 03:24:05,VALID,1000.71,VALID,0,VALID,91.7996,VALID,0,VALID,23.8378,VALID,86,VALID,0.525,
2010-06-14, 03:25:05,VALID,1000.73,VALID,0,VALID,91.853,VALID,0,VALID,23.8378,VALID,86,VALID,0.345313,
2010-06-14, 03:26:05,VALID,1000.73,VALID,0,VALID,91.9217,VALID,0,VALID,23.8183,VALID,86,VALID,0.552734,
2010-06-14, 03:27:05,VALID,1000.77,VALID,0,VALID,91.9903,VALID,0,VALID,23.8183,VALID,92,VALID,0.741797,
2010-06-14, 03:28:05,VALID,1000.79,VALID,0,VALID,92.0514,VALID,0,VALID,23.797,VALID,92,VALID,0.884766,
2010-06-14, 03:29:05,VALID,1000.81,VALID,0,VALID,92.1124,VALID,0,VALID,23.8201,VALID,92,VALID,0.730078,
2010-06-14, 03:30:05,VALID,1000.8,VALID,0,VALID,92.1277,VALID,0,VALID,23.8183,VALID,92,VALID,0.896484,
2010-06-14, 03:31:05,VALID,1000.79,VALID,0,VALID,92.1277,VALID,0,VALID,23.7988,VALID,93,VALID,0.772266,
2010-06-14, 03:32:05,VALID,1000.8,VALID,0,VALID,92.1658,VALID,0,VALID,23.7988,VALID,95,VALID,0.632422,
2010-06-14, 03:33:05,VALID,1000.77,VALID,0,VALID,92.1658,VALID,0,VALID,23.7988,VALID,95,VALID,0.429297,
2010-06-14, 03:34:05,VALID,1000.79,VALID,0,VALID,92.2345,VALID,0,VALID,23.7988,VALID,95,VALID,0.409766,
2010-06-14, 03:35:05,VALID,1000.78,VALID,0,VALID,92.265,VALID,0,VALID,23.7811,VALID,95,VALID,0.472266,
2010-06-14, 03:36:05,VALID,1000.79,VALID,0,VALID,92.265,VALID,0,VALID,23.7597,VALID,95,VALID,0.385156,
2010-06-14, 03:37:05,VALID,1000.74,VALID,0,VALID,92.2803,VALID,0,VALID,23.7402,VALID,95,VALID,0.282031,
2010-06-14, 03:38:05,VALID,1000.76,VALID,0,VALID,92.265,VALID,0,VALID,23.7207,VALID,95,VALID,0,
2010-06-14, 03:39:05,VALID,1000.76,VALID,0,VALID,92.2879,VALID,0,VALID,23.7207,VALID,95,VALID,0,
2010-06-14, 03:40:05,VALID,1000.76,VALID,0,VALID,92.3337,VALID,0,VALID,23.6817,VALID,95,VALID,0,
2010-06-14, 03:41:05,VALID,1000.74,VALID,0,VALID,92.3947,VALID,0,VALID,23.6817,VALID,95,VALID,0,
2010-06-14, 03:42:05,VALID,1000.77,VALID,0,VALID,92.4405,VALID,0,VALID,23.6817,VALID,95,VALID,0,
2010-06-14, 03:43:05,VALID,1000.78,VALID,0,VALID,92.4786,VALID,0,VALID,23.6622,VALID,95,VALID,0.226563,
2010-06-14, 03:44:05,VALID,1000.76,VALID,0,VALID,92.5244,VALID,0,VALID,23.6817,VALID,47,VALID,0.659766,
2010-06-14, 03:45:05,VALID,1000.82,VALID,0,VALID,92.5397,VALID,0,VALID,23.6622,VALID,46,VALID,0.654688,
2010-06-14, 03:46:05,VALID,1000.8,VALID,0,VALID,92.5931,VALID,0,VALID,23.6817,VALID,46,VALID,0.764063,